Погода в Минске

Погода в Минске : погода сейчас, прогноз погоды и архив. Всё, что Вы хотите узнать о погоде в Минске!

Хотите узнать прогноз погоды Минск? Тогда Вам сюда: Погода Минск

Поиск расширенной информации на нашем сайте:

Другие новости

Новости СМИ2

Главная страница сайта

Новости сайта

03.07.2017

Напоминаем, что на нашем специализированном сайте Метеоцентр.Азия вы можете получить высокодетализированные автоматические прогнозы погоды по пунктам России, СНГ и мира в авиационном формате (включающие направление и скорость ветра, видимость, явления погоды, количество и форму облачности, нижнюю и верхнюю границу облачности).


Погода в Минске - сегодня

Время (UTC), дата Ветер
(°,м/с) 
Видим.   Явления Облачность Т
(°С)
Тd
(°С)
f(%) Тe
(°С)
Pmin
(гПа)
dP
(гПа)
Po
(мм)
O2
(г/м3)
Тmin Tmax R s Состояние
почвы
06 18.02.18 300 (СЗ) 3300 м  слаб. снег  10/10 300 м 
[Sc]
-4.2 -5.9 88 -6  1020.2  0.5  744  305  -4.3    0.2  15  равномерный
сухой снег
100% 
09 18.02.18 320 (СЗ) 8000 м  слаб. снег  10/10 480 м 
[Sc]
-3.4 -5.8 83 -6  1020.7  0.5  744  304           
12 18.02.18 320 (СЗ) 4100 м  слаб. снег  10/10 360 м 
[Sc]
-3.2 -5.6 83 -5  1021.7  745  304           
15 18.02.18 330 (СЗ) 4700 м  слаб. снег  10/10 360 м 
[Sc]
-3.9 -6.4 83 -6  1022.8  745  305      0.8     
18 18.02.18 320 (СЗ) 10 км  {снег}  10/10 330 м 
[Sc]
-4.1 -6.5 83 -6  1023.7  0.9  746  306    -3  0.8  16   
21 18.02.18 320 (СЗ) 11000 м  в посл. час снег  10/10 450 м 
[Sc]
-5.8 -8.1 84 -8  1024.4  0.5  746  308           
00 19.02.18 280 (З) 11000 м  в посл. час снег  10/10 450 м 
[Sc]
-5.7 -7.9 84 -7  1024  -0.4  746  308           
03 19.02.18 290 (З) 13000 м  {снег}  10/10 360 м 
[Sc]
-4.9 -7 85 -4  1023.1  -0.8  746  307      0.0  16   
06 19.02.18 340 (С) 6000 м  слаб. снег  10/10 360 м 
[Sc]
-4.8 -6 91 -4  1023.3  0.2  746  306  -5.8    0.0  16  равномерный
сухой снег
100% 
09 19.02.18 330 (СЗ) 10 км  слаб. снег  10/10 330 м 
[Sc]
-4.7 -7.9 78 -6  1023.9  0.6  746  307           
12 19.02.18 290 (З) 18000 м  {снег}  10/10 800 м 
[Sc]
-3 -8.4 66 -4  1024  0.3  746  305           
15 19.02.18 330 (СЗ) 21000 м    8/8 700 м средняя 
[Sc|Ac trans]
-3.2 -8.5 67 -4  1024.2  0.2  747  305      0.0     
18 19.02.18 290 (З) 18000 м    10/10 570 м 
[Sc]
-3.5 -8 71 -5  1024.8  0.5  747  306    -2.7  0.0  16   
21 19.02.18 290 (З) 16000 м    8/5 600 м средняя 
[Sc|Ac trans]
-4 -7.3 78 -4  1024.6  -0.2  747  306           
00 20.02.18 360 (С) 12000 м  слаб. снег  10/10 450 м 
[Sc]
-4.2 -6.3 85 -4  1025.3  0.6  747  306           
03 20.02.18 тихо ()   10 км  {снег}  10/10 450 м 
[Sc]
-4.3 -6 88 -4  1024.9  -0.4  747  306      0.0  16   
06 20.02.18 тихо ()   13000 м  {снег}  8/5 600 м средняя 
[Sc|Ac cast]
-4.1 -6.5 83 -4  1025.3  0.4  747  306  -4.5    0.0  16  равномерный
сухой снег
100% 
09 20.02.18 300 (СЗ) 20000 м    9/5 600 м средняя 
[Sc|Ac und]
-2.9 -8.2 67 -2  1025.3  0.2  747  305           
12 20.02.18 330 (СЗ) 15000 м    8/5 630 м средняя 
[Sc|Ac und]
-2.3 -7.2 69 -2  1025  -0.3  747  304           
15 20.02.18 340 (С) 16000 м    9/5 570 м средняя 
[Sc|Ac und]
-2.2 -6.7 71 -2  1024.6  -0.3  747  304           
18 20.02.18 120 (ЮВ) 8000 м  слаб. снег  10/10 400 м 
[Sc]
-3 -6 80 -3  1024.3  -0.4  747  305    -0.2  0.0  15   
21 20.02.18 120 (ЮВ) 6000 м  слаб. снег  10/10 330 м 
[Sc]
-5.4 -7.4 86 -5  1025.1  0.5  747  308           
00 21.02.18 130 (ЮВ) 6000 м  слаб. снег  10/10 360 м 
[Sc]
-6 -7.9 86 -7  1025.3  0.1  747  309           
03 21.02.18 040 (СВ) 8000 м  слаб. снег  10/10 480 м 
[Sc]
-6.3 -7.9 88 -6  1024.9  -0.4  747  309      0.8  16   
06 21.02.18 120 (ЮВ) 10 км  слаб. снег  10/10 660 м 
[Sc]
-7 -8.5 89 -7  1024.7  -0.3  747  310  -7    0.8  16  равномерный
сухой снег
100% 
Время (UTC), дата Ветер
(°,м/с) 
Видим.   Явления Облачность Т
(°С)
Тd
(°С)
f(%) Тe
(°С)
Pmin
(гПа)
dP
(гПа)
Po
(мм)
O2
(г/м3)
Тmin Tmax R s Состояние
почвы

Для получения пояснительной информации подведите курсор к названию столбца.

ПОГОДА в Минске - архив

Всё, что Вы хотите узнать о погоде в Минске - удобно и подробно!

Выберите нужную дату (начиная с 1 января 2015* года) и нажмите кнопку "Найти".
Будут отображены архивные сводки погоды по пункту Минск, начиная с указанной даты.


Отображать данные в формате CSV (для использования в таблицах Excel)


Внимание! Наш архив погоды предназначен исключительно для личного некоммерческого использования в познавательных целях. Если Вам необходимы официальные справки о состоянии погоды (для производственных, юридических, коммерческих и т.п. целей), обращайтесь в органы Росгидромета.

*Примечание: данная дата относится к архиву по метеостанциям СССР (Россия, СНГ, Балтия).
Архив по метеостанциям Зарубежной Европы и Азии (кроме Китая) хранится 10 дней, по другим регионам земного шара (Китай, Африка, Америка, Австралия, Океания) - 1 день.

Минск - район местоположения метеостанции


Название, широта, долгота, высота метеостанции:
Минск (город) 53.9°ш. 27.6°д. 231 м над ур. моря [Беларусь]

Дополнительная информация

В oтличие oт бoльшинства пoгoдных сайтoв мы публикуем пoдрoбную метеoинфoрмацию в детальнoм прoфессиoнальнoм фoрмате.

Характеристики температуры и влажнoсти вoздуха измеряются на высoте 2 м в тени вдали oт зданий и деревьев.
Скoрoсть ветра измеряется на высoте 10 м (на урoвне рoста челoвека скoрoсть ветра ниже в 1.5-2 раза). Если метеoстанция нахoдится в гoрoде или в лесу, тo скoрoсть ветра занижена на 2-4 м/с пo сравнению с oткрытым местoм. Скoрoсть ветра над акватoриями крупных рек и oзёр, а также на вершинах хoлмoв на 2-5 м/с выше, чем в oбычных услoвиях.
Атмoсфернoе давление в разных тoчках местнoсти мoжет значительнo oтличаться oт давления на метеoстанции, в зависимoсти oт услoвий рельефа (при пoдъёме на 10 м давление пoнижается примернo на 1 мм рт.ст.).